Location: Newark
(25.4297°S, 49.2719°W)
Time: 00:25:05
(UTC+00:00)

Vanguard 1 Rocket - Pass Details

Date: 27 November 2019
Orbit: 650 x 4226 km, 34.3° (Epoch: 06 December)

Event Time Altitude Azimuth Distance (km) Brightness Sun altitude
Rises 13:57:51 0° 310° (NW) 4,900 11.0 74.1°
Reaches altitude 10° 14:00:25 10° 313° (NW) 4,247 10.9 74.7°
Maximum altitude 14:13:01 72° 35° (NE) 3,009 12.4 77.4°
Drops below altitude 10° 14:36:35 10° 114° (ESE) 7,305 12.2 82.3°
Sets 14:42:47 0° 115° (ESE) 8,470 12.4 83.4°
